Temp
13 13 13 13 13 13 13 13 12 13 12 11 11 12 13 12 13 12 13 13 13 12 12 14 14 13 13 12 12 11 11 10 6 9 9 10 9 9 9 9 9 8 8
12 12 12 12 12 12 12 12 12 12 12 11 10 10 12 13 13 12 12 12 12 11 12 13 13 13 12 12 11 11 11 10 10 7 9 9 9 9 8 8 8 8 8
12 11 11 11 11 11 11 12 12 12 11 10 10 10 10 11 12 12 12 11 12 11 12 12 12 12 12 11 11 11 10 10 10 8 8 8 8 8 8 8 7 8 8
11 10 11 11 10 10 11 11 11 11 10 11 10 9 9 9 10 11 11 11 11 11 11 12 12 13 12 11 11 10 10 10 9 8 7 7 7 8 7 7 7 7 7
10 10 10 10 10 10 10 10 11 10 10 10 9 9 8 8 9 11 12 11 11 10 11 11 12 13 12 12 11 10 10 9 8 7 6 6 6 6 6 7 5 6 6
9 9 9 10 10 10 9 10 10 10 9 9 8 8 8 8 8 9 12 11 10 10 10 11 11 12 12 11 11 11 11 9 8 7 7 5 6 6 6 6 5 4 5
9 9 9 9 9 9 9 9 9 9 8 7 7 6 7 6 7 8 10 10 9 10 10 10 11 11 11 11 10 9 10 9 8 8 7 7 6 6 6 6 5 4 5
9 9 9 8 9 8 8 8 8 8 7 7 6 6 6 6 6 7 11 9 9 9 10 11 11 11 11 11 10 10 10 9 9 8 7 7 7 6 6 6 5 5 6
8 8 8 8 8 8 8 7 8 7 7 6 6 6 5 5 6 8 10 8 8 9 10 11 12 11 11 10 10 10 9 8 8 7 6 6 6 6 6 6 5 5 6
8 8 8 8 8 7 7 7 7 6 6 6 6 6 6 5 6 8 8 7 8 8 10 11 12 11 11 10 10 9 8 7 7 6 6 6 6 6 6 6 5 5 5
6 7 7 7 7 7 7 6 6 6 6 6 5 6 6 5 6 8 9 7 7 8 8 9 10 11 10 9 9 8 8 7 6 6 6 6 6 6 6 5 4 4 5
7 6 6 6 6 6 5 5 5 5 5 5 5 6 5 5 6 7 8 7 8 9 8 9 10 10 9 8 8 7 6 7 6 6 5 5 5 5 5 4 4 5 5
6 6 5 5 5 4 4 5 5 5 5 5 6 6 5 6 7 8 9 8 8 9 10 11 10 9 9 8 7 6 6 6 6 5 5 5 5 5 5 5 5 7 9
4 5 4 4 4 4 4 5 5 4 4 5 6 6 6 6 7 8 8 9 9 10 10 10 9 8 8 7 6 6 6 6 5 5 5 5 6 4 4 5 5 6 9
3 4 3 4 4 4 4 4 5 4 4 5 6 6 6 6 7 8 8 8 8 9 9 8 8 7 6 6 6 6 6 5 5 5 5 5 5 3 4 5 5 7 9
2 3 4 4 4 3 3 4 4 4 5 5 5 6 6 7 8 9 8 9 10 9 7 6 6 6 6 5 5 5 5 5 5 5 5 5 4 3 4 5 5 6 9
3 3 3 3 3 3 3 4 4 4 4 6 6 6 6 7 8 8 9 9 9 7 5 5 5 6 5 5 5 5 5 5 5 5 5 5 4 4 4 5 5 6 9
2 3 3 3 2 2 3 3 4 3 4 6 6 5 6 7 7 7 7 7 6 7 6 6 6 6 5 5 5 5 5 5 5 5 4 4 4 3 4 4 5 5 8
2 2 2 2 2 3 3 3 3 3 5 5 5 5 6 7 7 7 7 6 6 5 6 6 6 5 5 5 5 5 5 4 4 4 4 4 4 3 3 4 4 5 6
1 2 2 2 2 2 2 2 3 5 5 5 6 6 6 6 5 5 5 6 6 6 6 6 5 5 5 5 5 5 5 4 4 4 3 3 3 3 3 3 4 4 5
1 2 3 3 3 3 4 4 5 5 5 5 5 5 5 4 4 4 4 6 6 5 5 5 5 5 5 5 5 4 4 4 4 4 3 3 3 3 3 3 3 4 5
1 2 2 3 3 3 3 3 3 4 4 3 3 4 4 4 4 4 5 5 5 5 5 5 5 5 5 5 4 4 4 4 4 3 3 3 3 3 3 3 3 4 4
0 1 2 2 2 2 2 2 3 3 3 3 3 3 4 4 4 4 5 5 5 5 5 5 5 5 4 4 4 4 4 3 3 3 3 3 3 2 2 2 3 3 4
1 1 1 2 2 2 2 2 2 2 3 3 3 3 4 4 4 5 5 5 5 5 5 5 5 4 4 4 4 4 3 3 3 3 3 3 2 2 2 2 3 3 3
0 0 0 1 1 1 1 2 2 1 2 2 3 3 4 4 4 4 4 5 5 4 4 4 4 4 4 4 4 3 4 3 3 3 3 3 2 2 2 2 3 3 3
0 0 0 0 0 0 1 1 1 1 1 1 2 3 3 4 4 4 4 4 4 4 4 4 4 4 3 3 3 3 3 2 2 3 2 2 2 2 2 2 2 2 3
Height
777 777 776 772 767 763 760 755 752 748 746 744 739 735 729 725 727 728 726 728 731 735 741 746 751 757 762 766 770 773 774 776 777 779 781 782 783 783 783 783 781 780 779
777 774 771 766 761 757 753 748 746 743 740 737 733 730 724 721 721 721 721 720 722 727 732 738 744 751 755 760 765 768 769 771 773 774 775 776 777 777 777 776 774 772 770
770 766 761 758 755 750 745 741 738 735 732 729 728 725 721 717 717 717 716 715 715 718 722 729 735 743 748 753 759 763 766 768 769 771 771 771 771 771 770 768 766 764 763
763 759 753 749 747 743 737 733 730 727 723 720 718 717 715 711 710 711 709 708 707 710 714 720 726 734 740 746 752 757 761 764 765 766 767 766 765 765 764 761 758 756 754
755 751 747 743 738 733 729 726 722 718 717 714 710 707 705 705 700 699 698 699 701 702 706 713 719 728 734 740 746 751 756 758 760 762 762 761 759 759 758 755 751 748 743
745 741 739 736 731 727 722 718 714 712 709 707 703 699 694 693 686 686 686 690 692 694 699 707 714 722 729 736 741 746 750 752 755 756 756 755 754 753 752 749 744 741 736
737 731 729 727 724 719 715 712 709 705 702 699 695 691 686 682 677 675 677 679 684 687 692 700 708 716 724 731 738 742 745 748 749 750 750 749 748 747 745 740 736 734 727
727 723 720 718 714 711 708 705 701 697 693 689 685 681 676 671 667 666 665 670 678 682 686 694 702 710 717 726 733 737 741 743 744 745 745 743 743 740 737 732 727 721 715
717 714 711 709 705 703 699 696 692 689 684 680 677 670 668 660 659 654 658 665 676 678 682 690 698 706 714 722 728 733 736 738 740 740 740 739 737 733 730 726 716 713 700
708 705 702 699 697 695 691 687 684 680 674 672 667 662 657 654 651 649 653 663 673 676 680 687 694 703 712 718 724 729 732 734 736 736 734 732 730 724 719 715 707 699 691
698 696 692 690 689 686 683 679 676 671 667 663 660 653 649 647 645 645 651 660 668 673 678 686 692 702 710 716 722 726 729 731 732 730 728 726 721 714 706 700 695 688 679
690 685 683 681 680 678 676 669 666 662 659 655 650 645 642 639 639 640 648 657 665 669 676 683 692 701 709 715 719 723 726 728 727 726 725 721 714 706 697 690 681 671 662
681 676 674 672 670 670 666 661 658 654 652 647 641 637 635 634 635 638 647 657 665 668 675 683 693 701 708 714 718 722 723 723 724 724 722 716 711 702 692 682 672 660 652
672 667 666 663 662 660 657 653 651 649 645 640 632 631 630 632 635 639 649 658 662 668 677 686 695 702 707 713 717 719 720 722 722 722 718 714 707 698 690 681 671 661 654
664 661 659 656 654 651 649 646 643 641 639 635 628 629 628 632 634 641 650 658 662 669 678 688 695 702 708 712 714 716 720 721 720 719 717 713 705 699 689 680 672 666 660
655 654 652 648 646 643 641 637 636 633 628 624 623 626 629 631 635 643 650 655 664 672 680 689 696 703 707 710 713 718 720 720 720 719 716 712 706 699 691 683 676 672 668
650 647 645 642 641 637 634 631 629 623 621 617 620 624 629 634 639 645 651 659 667 675 682 691 696 703 706 711 716 718 719 720 720 718 716 713 707 700 695 687 682 679 676
643 641 638 636 634 630 627 626 626 626 623 615 619 625 632 637 643 651 656 663 671 679 685 690 696 702 708 712 716 717 719 720 719 718 717 714 709 703 699 693 689 685 681
636 634 631 629 627 625 622 623 622 622 618 619 625 630 634 640 649 655 659 664 672 680 686 692 698 704 708 712 716 718 719 719 719 720 719 716 712 706 702 699 695 691 686
634 630 627 622 619 619 619 618 617 616 620 624 629 632 639 648 655 660 664 669 676 683 689 695 700 705 709 713 716 719 719 720 722 721 720 718 716 711 706 703 701 697 693
635 629 625 618 617 617 615 614 616 621 627 630 633 640 646 653 659 664 669 674 680 688 694 698 703 708 711 715 718 720 721 723 724 723 722 721 718 715 712 709 706 705 702
640 634 631 627 626 626 625 625 627 630 635 639 644 649 655 660 665 670 675 681 687 693 698 701 706 710 713 717 719 721 723 725 725 725 724 723 721 718 716 714 710 709 709
648 643 640 638 637 636 635 636 637 641 645 648 652 659 664 669 674 677 681 688 692 697 701 705 708 712 716 719 721 723 725 727 727 727 726 725 724 723 721 718 716 715 716
656 653 650 648 647 647 648 649 649 652 655 660 663 668 673 677 680 684 688 692 696 701 705 709 712 715 718 721 724 725 728 729 729 729 729 728 726 726 726 723 720 721 721
668 665 661 659 658 658 657 658 661 664 667 669 672 676 680 683 687 690 695 698 702 705 710 712 714 718 721 723 726 727 729 729 730 731 731 731 730 728 728 728 727 725 724
677 673 670 668 667 667 668 669 670 673 675 678 681 684 687 690 693 696 700 703 706 710 713 716 719 721 723 726 727 729 730 731 731 732 733 732 733 732 731 730 730 729 727
Wind_Speed
24 24 26 34 37 33 34 39 28 29 33 32 31 32 30 31 38 38 39 40 43 40 40 42 42 37 34 31 26 23 21 20 9 11 15 17 19 17 17 17 18 21 24
22 24 32 31 37 33 36 35 31 30 30 30 31 29 26 25 32 36 37 35 43 37 41 41 42 37 32 31 28 26 24 22 19 13 17 18 19 17 16 19 22 25 24
30 31 32 29 33 36 37 32 32 30 32 26 26 25 27 26 26 34 33 35 40 40 43 42 42 40 35 32 29 27 24 22 20 19 16 18 18 18 21 22 22 23 22
30 33 31 34 32 32 36 32 32 36 30 30 29 28 28 30 25 34 36 38 38 39 40 43 43 42 40 34 30 28 25 21 19 18 16 16 19 22 21 23 26 26 28
27 30 31 29 35 36 27 36 35 29 27 31 34 32 29 30 32 29 38 38 36 33 39 42 43 40 38 34 32 29 24 21 18 14 14 17 20 22 21 24 23 27 33
28 27 29 30 32 28 34 35 20 23 25 28 32 34 30 30 29 35 38 37 37 35 37 38 38 36 33 30 28 26 25 23 19 15 17 16 21 23 22 22 25 19 11
30 32 28 30 26 31 30 25 27 24 28 30 31 29 28 28 30 35 41 36 32 34 35 37 36 35 31 28 23 20 20 18 15 16 19 18 20 21 22 26 25 25 29
32 32 26 28 28 26 27 31 31 30 30 30 29 29 27 29 32 34 33 34 31 35 37 39 37 34 33 29 26 23 21 18 17 16 17 19 20 22 27 29 33 33 36
33 28 26 28 29 27 26 30 32 29 30 28 28 31 26 32 31 30 31 30 29 33 37 37 37 33 30 28 25 22 18 16 15 13 14 16 20 24 26 30 30 25 22
32 25 31 29 27 25 29 29 28 28 32 27 29 28 25 31 28 23 31 28 27 28 34 35 34 32 28 24 23 19 14 14 11 11 14 18 22 27 31 30 32 27 26
27 33 30 24 25 27 24 27 32 32 31 26 28 27 26 28 24 23 34 29 26 25 29 32 34 30 25 20 17 13 10 6 8 10 15 20 25 30 35 31 30 29 29
33 26 25 28 25 24 28 35 30 29 24 26 25 21 24 22 20 24 35 28 28 30 28 33 31 27 24 19 13 8 6 6 6 10 14 22 27 34 34 33 35 34 33
29 30 30 26 25 25 31 30 26 23 20 23 20 17 16 15 18 29 32 29 33 30 36 33 29 24 20 16 12 7 4 2 5 9 15 21 27 33 33 32 34 30 25
33 25 25 24 24 26 25 24 23 19 21 21 17 13 12 12 18 27 27 31 30 33 32 30 26 23 19 15 9 6 2 1 3 9 14 20 29 30 27 27 28 30 20
25 25 22 23 25 23 23 25 19 20 25 22 15 14 13 15 21 26 27 26 30 33 32 29 28 22 17 12 8 7 5 3 6 10 14 21 27 24 24 27 25 22 15
21 20 19 21 20 19 22 20 20 25 26 27 16 15 21 16 30 32 32 36 34 35 30 26 23 20 16 13 13 10 7 4 6 9 11 21 24 21 24 25 25 22 15
22 21 21 22 19 19 22 13 14 23 23 15 17 19 26 19 30 33 34 35 36 31 27 22 22 19 16 15 12 10 6 4 6 8 13 21 22 20 22 22 22 21 14
21 24 23 20 20 22 14 15 14 12 15 11 18 24 25 25 34 33 38 35 24 24 26 23 21 17 18 16 13 10 7 6 9 9 14 20 22 19 20 21 21 20 13
19 18 20 20 19 17 16 15 15 18 7 17 21 19 26 33 32 36 31 28 25 23 23 21 18 19 19 16 12 10 7 10 10 10 13 19 23 19 20 21 21 21 20
15 17 18 19 17 10 10 13 15 12 16 18 17 20 28 31 24 20 24 27 26 24 21 20 18 19 19 15 12 10 9 10 9 10 12 18 22 21 21 22 22 21 21
14 16 14 12 7 2 7 14 17 21 19 14 21 27 27 22 20 21 22 26 23 21 20 20 19 19 16 13 11 10 10 9 9 9 11 16 20 22 21 21 21 21 20
21 17 16 16 16 17 17 19 24 24 23 25 25 26 24 23 24 23 23 21 20 21 21 20 19 16 13 12 11 10 9 7 9 10 11 14 18 21 22 21 22 22 21
23 21 18 19 19 20 21 21 23 24 24 23 25 22 23 25 25 22 22 22 22 21 19 18 17 16 13 11 10 9 9 8 8 8 9 13 16 19 20 20 20 20 18
22 22 20 20 20 20 19 20 25 25 24 22 23 22 23 21 21 22 23 23 21 19 20 19 17 14 11 10 9 9 6 5 5 6 8 11 15 17 15 18 19 19 18
22 21 21 18 18 18 21 22 22 21 20 20 21 21 19 20 22 23 23 23 22 21 19 16 14 11 8 9 8 7 4 3 6 7 8 11 11 12 13 14 15 16 17
22 21 21 22 21 19 18 18 18 19 19 19 19 19 18 18 20 21 20 19 18 17 15 13 11 8 8 9 8 6 5 4 5 7 8 10 10 9 10 11 13 14 15
Wind_Direction
318 321 316 314 308 307 314 313 291 301 310 311 316 308 309 262 240 229 224 222 226 221 221 225 227 222 217 217 218 216 215 214 205 244 237 257 274 281 281 275 279 281 284
314 311 308 309 310 301 308 309 304 292 301 306 317 313 306 292 247 233 226 218 222 212 219 220 221 217 212 213 212 217 221 222 227 234 259 266 275 278 276 285 290 288 288
312 306 300 306 305 298 299 300 306 299 295 301 314 315 307 285 277 245 229 223 224 216 217 214 214 213 211 209 213 220 222 221 232 242 259 271 274 277 289 293 293 294 292
306 303 298 305 300 299 306 303 303 304 287 294 293 301 298 292 273 255 239 229 219 214 212 216 212 213 215 213 216 219 219 226 233 242 250 259 273 287 291 293 295 297 294
300 300 295 302 304 303 304 308 305 299 289 299 288 289 295 292 270 266 236 233 217 206 209 213 217 217 220 220 216 216 221 225 225 226 247 265 274 284 284 295 284 285 290
293 292 291 304 303 302 302 302 295 301 302 295 283 278 289 293 279 270 238 219 212 200 198 210 214 214 215 215 215 223 226 219 221 234 253 255 269 279 291 284 279 281 286
289 293 287 299 296 299 303 300 293 293 300 294 288 267 280 294 278 271 238 209 208 200 198 202 205 205 206 205 208 211 219 227 240 252 250 260 275 289 297 289 282 271 268
284 282 285 284 294 289 300 295 284 292 295 292 289 270 274 294 276 274 218 205 209 202 199 208 201 200 203 204 200 213 218 224 233 248 266 278 287 296 293 290 283 277 278
285 272 286 278 282 286 295 290 286 290 292 285 287 280 269 294 277 275 210 200 206 194 201 203 198 195 196 197 206 214 218 233 250 258 270 280 289 291 289 289 281 277 271
282 281 291 280 275 284 292 285 290 290 290 287 291 275 267 285 271 253 201 190 196 185 193 194 195 194 189 194 202 204 216 243 259 275 289 299 302 300 301 294 277 269 272
282 289 277 275 285 290 289 291 293 290 288 286 285 274 276 271 264 229 197 185 188 175 175 176 180 183 177 179 198 207 224 250 275 288 308 312 313 315 313 300 282 269 267
288 280 288 285 282 287 291 290 283 287 283 291 281 263 263 266 259 228 180 187 193 173 168 172 175 177 176 176 183 196 217 257 285 314 323 324 324 319 314 307 303 298 288
281 286 281 280 285 289 287 280 280 284 290 285 275 255 262 259 217 187 186 192 190 162 170 172 168 172 171 164 181 192 218 258 321 335 333 325 324 324 322 314 326 340 340
281 273 278 278 286 287 279 278 283 282 292 283 277 232 246 209 209 174 189 183 167 170 165 161 165 166 164 167 175 178 166 60 357 350 337 328 334 331 317 328 330 335 339
274 278 273 274 283 277 277 283 279 283 280 277 252 221 174 210 167 167 165 158 153 155 151 146 151 152 150 158 156 141 114 80 359 353 337 340 341 331 328 343 345 351 27
273 276 282 283 278 275 284 281 285 284 287 291 218 205 182 181 160 168 159 161 158 153 139 141 150 156 154 145 140 130 109 46 36 358 351 355 347 333 340 350 0 4 47
279 278 280 281 282 276 286 276 291 302 309 276 188 177 176 167 154 158 164 161 157 146 135 146 153 153 140 145 144 131 114 76 18 25 9 6 360 347 355 357 1 7 47
279 280 283 282 280 278 273 276 278 288 291 134 145 162 169 155 146 151 146 135 130 144 148 152 153 146 145 144 135 126 113 56 50 49 21 14 12 357 1 3 7 5 15
284 284 282 279 277 278 271 263 269 272 133 128 139 160 164 154 164 150 144 137 135 135 144 148 150 147 144 140 130 121 95 74 70 52 27 20 18 7 6 8 11 13 25
307 307 300 286 267 260 254 253 259 137 132 139 150 138 127 130 130 126 135 139 137 139 147 148 151 146 141 137 128 117 96 81 64 48 35 24 21 19 12 6 15 17 14
347 339 11 36 68 79 92 96 107 118 118 104 106 119 129 124 120 120 127 136 141 144 150 150 148 141 137 133 127 112 95 90 65 49 36 23 21 20 18 14 14 26 26
14 16 35 49 65 75 82 93 99 97 96 93 92 98 114 110 115 121 129 136 145 149 146 145 141 134 131 129 124 110 102 92 66 49 33 28 22 18 17 19 16 22 26
27 28 48 54 68 71 73 82 89 90 88 88 92 94 101 107 117 127 136 143 143 139 140 142 136 125 123 119 112 103 102 91 53 34 35 25 24 18 13 15 19 15 17
29 32 40 53 68 72 76 83 84 85 90 94 96 101 110 113 117 124 130 136 137 138 140 138 134 125 116 104 106 109 106 76 47 41 39 30 18 12 17 15 17 15 12
33 36 40 47 56 65 72 77 82 86 88 91 95 106 117 122 127 125 128 131 130 128 128 130 132 128 115 124 129 124 102 59 60 61 47 31 17 7 13 19 17 12 9
36 41 42 46 50 58 67 76 81 86 89 96 108 117 119 126 131 131 132 132 133 132 130 127 137 141 143 126 112 98 77 66 66 53 36 25 25 18 9 12 16 15 11